SCP
1 1 1 1 0 0 0 0 0 0 0 0 0 0 0 0 0 0 0 1 1 0 0 0 0 1 1 0 0 0 0 0 0 0 0 0 0 0 0 0 0 0 0
1 1 1 1 0 0 0 0 0 0 0 0 0 0 0 0 0 0 0 0 1 1 1 0 0 1 1 0 0 0 0 0 0 0 0 0 0 0 0 0 0 0 0
1 1 1 1 0 0 0 0 0 0 0 0 0 0 0 0 0 0 0 0 1 1 1 1 1 1 1 0 0 0 0 0 0 0 0 0 0 0 0 0 0 0 0
1 1 1 1 1 0 0 0 0 1 0 0 0 0 0 0 0 0 0 1 1 1 1 1 1 1 0 0 0 0 0 0 0 0 0 0 0 0 0 0 0 0 0
1 1 1 1 1 0 0 0 0 1 0 0 0 0 0 0 0 0 0 0 0 0 0 1 1 0 0 1 1 1 1 0 0 0 0 0 0 0 0 0 0 0 0
1 1 1 1 1 0 0 0 0 0 0 0 0 0 0 0 0 1 1 0 0 0 0 0 1 1 1 1 1 1 1 0 0 0 0 0 0 0 0 0 0 0 0
1 1 1 1 1 0 0 0 0 0 0 0 0 0 0 0 0 1 0 0 0 0 0 0 0 0 1 1 1 1 1 1 1 0 0 0 1 1 1 1 1 0 0
1 1 1 1 1 1 0 0 0 0 0 0 0 0 0 0 0 0 0 0 0 0 0 0 0 0 1 1 1 1 1 0 1 1 1 1 1 1 1 1 1 1 1
2 1 1 1 1 1 1 0 0 0 0 0 0 0 0 0 0 0 0 0 0 0 0 0 0 0 0 1 1 0 0 0 0 1 1 1 1 1 1 1 1 1 1
2 2 2 1 1 1 1 1 0 0 0 0 0 0 0 0 0 0 0 0 0 0 0 0 0 0 0 0 0 0 0 0 0 0 1 1 1 1 1 1 1 1 1
2 2 2 2 1 1 1 1 1 1 0 0 0 0 0 0 0 0 0 0 0 0 0 0 0 0 0 0 0 0 0 0 0 0 0 1 1 1 1 1 1 1 1
2 2 2 2 2 1 2 2 1 1 1 0 0 0 0 0 0 0 0 0 0 0 0 0 0 0 0 0 0 0 0 0 0 0 0 0 0 0 1 1 1 1 1
2 2 2 2 2 2 2 2 2 1 1 1 0 0 0 0 0 0 0 0 0 0 0 0 0 0 0 0 0 0 0 0 0 0 0 0 0 0 0 0 1 1 1
2 2 2 2 2 2 2 2 2 1 1 1 0 0 0 0 0 0 0 0 0 0 0 0 0 0 0 0 0 0 0 0 0 0 0 0 0 0 0 0 0 0 0
2 2 2 2 2 2 2 2 2 1 1 0 0 0 0 0 0 0 0 0 0 0 0 0 0 0 0 0 0 0 0 0 0 0 0 0 0 0 0 0 0 0 0
2 2 2 2 2 3 3 2 1 1 0 0 0 0 0 0 0 0 0 0 0 0 0 0 0 0 0 0 0 0 0 0 0 0 0 0 0 0 0 0 0 0 0
2 2 2 2 2 3 2 1 1 0 0 0 0 0 0 0 0 0 0 0 0 0 0 0 0 0 0 0 0 0 0 0 0 0 0 0 0 0 0 0 0 0 0
2 2 2 2 2 2 1 0 0 0 0 0 0 0 0 0 0 0 0 0 0 0 0 0 0 0 0 0 0 0 0 0 0 0 0 0 0 0 0 0 0 0 0
1 2 2 1 1 1 0 0 0 0 0 0 0 0 0 0 0 0 0 0 0 0 0 0 0 0 0 0 1 1 0 0 0 0 0 0 0 0 0 0 0 0 0
2 2 2 1 1 0 0 0 0 0 0 0 0 0 0 0 0 0 0 0 1 1 1 1 1 1 1 1 1 0 0 0 0 0 0 0 0 0 0 0 0 0 0
2 2 2 1 1 0 0 0 0 0 0 0 0 0 0 0 0 0 0 0 1 1 1 1 1 1 1 1 1 0 0 0 1 1 1 1 1 1 1 0 0 0 0
2 2 2 1 1 0 0 0 0 0 0 0 0 0 0 0 0 0 0 0 0 1 1 1 1 1 1 1 1 1 1 1 1 1 1 1 1 1 1 1 0 0 0
3 3 2 1 1 0 0 0 0 0 0 0 1 1 1 0 0 0 0 0 0 0 1 1 1 1 1 1 2 2 2 2 2 2 2 1 1 1 1 1 0 0 0
3 3 2 1 1 0 0 0 0 0 0 1 1 1 1 1 0 0 0 0 1 1 1 0 1 1 1 1 1 2 2 2 2 2 1 1 1 1 1 0 0 0 0
3 2 2 1 1 1 0 0 0 0 0 1 1 1 1 0 0 0 0 1 1 1 1 1 1 1 1 1 1 1 1 1 1 1 1 1 1 1 1 0 0 0 0
3 2 2 2 1 1 0 0 0 0 1 1 1 1 0 0 0 0 1 1 1 1 2 1 1 1 1 0 0 0 0 1 1 1 1 1 1 1 1 0 0 0 0
Wind_Speed
4 4 3 2 2 2 3 2 2 2 2 2 1 1 1 1 2 1 5 6 5 4 5 6 7 7 6 6 6 6 6 6 6 6 6 6 7 7 8 7 7 7 7
4 4 4 3 2 2 1 1 2 2 1 1 1 1 1 1 2 1 3 6 7 5 5 5 6 7 7 7 6 6 6 6 6 6 6 6 7 7 7 8 8 8 7
4 4 3 3 2 2 3 2 2 2 2 2 2 2 2 1 1 2 2 2 5 8 6 5 6 6 7 6 6 6 5 5 5 6 6 6 6 7 7 8 8 8 8
5 4 3 3 3 3 3 3 3 2 1 1 1 1 1 2 2 2 3 3 2 3 7 7 6 6 6 7 7 7 6 5 6 6 7 7 7 7 8 8 9 9 9
5 4 2 2 3 3 2 3 2 1 1 1 2 2 1 1 1 2 2 2 2 2 3 7 6 5 5 6 7 8 8 8 8 7 8 8 8 8 8 9 9 10 10
5 4 3 3 3 3 2 1 2 1 1 1 2 1 0 1 1 1 2 2 3 3 3 3 4 6 6 5 6 7 9 9 10 9 9 9 9 8 9 9 10 10 10
5 3 3 4 3 2 2 3 3 4 2 1 2 2 3 2 2 2 1 0 2 2 2 2 2 1 4 6 4 5 6 9 10 9 9 9 9 9 8 9 9 10 11
5 5 3 3 3 3 3 3 2 2 2 2 2 2 3 4 3 3 2 2 1 2 2 3 3 1 0 2 5 3 2 5 8 10 10 9 9 8 8 9 8 9 10
5 3 4 3 3 4 4 3 4 4 2 3 2 3 2 1 4 4 2 2 2 1 2 3 3 2 2 2 3 5 3 1 2 5 7 8 8 8 9 9 10 9 9
6 5 5 4 3 3 3 4 3 3 3 3 3 1 3 4 2 3 4 4 3 2 2 1 3 4 3 3 4 6 4 3 2 0 2 4 5 6 7 8 10 10 9
6 6 5 4 4 3 3 1 2 3 3 3 2 3 2 2 4 3 3 4 4 3 2 2 2 2 3 2 2 7 5 3 2 2 2 1 2 4 5 7 8 9 10
6 6 6 5 4 3 4 3 3 3 1 1 1 2 2 2 3 2 2 3 3 3 2 1 1 1 1 1 5 6 4 3 2 1 1 2 2 2 3 5 7 9 9
6 7 6 5 4 4 4 3 3 2 2 2 2 2 1 1 2 2 3 2 2 3 3 3 1 0 0 1 3 3 3 2 1 1 1 2 3 3 4 5 6 8 9
7 8 7 6 5 5 5 4 4 4 3 2 2 0 1 1 1 2 2 2 3 3 4 3 2 1 1 1 4 5 2 3 1 1 2 2 3 4 5 5 6 7 7
7 9 8 7 6 6 5 5 3 4 4 4 4 4 2 2 1 1 2 3 4 4 3 4 3 2 2 1 1 4 3 4 1 2 3 4 4 5 5 6 6 7 7
7 9 8 8 7 7 6 5 5 5 4 3 1 1 1 2 1 1 1 2 3 4 3 1 1 1 2 4 2 4 5 4 7 5 4 5 5 6 6 6 6 7 8
9 10 9 9 8 8 7 6 5 6 5 4 4 4 3 1 2 2 2 2 2 3 3 2 1 1 2 6 4 5 6 7 5 9 6 6 6 7 7 7 7 8 8
10 10 10 9 9 8 7 7 7 6 6 6 5 5 5 4 3 3 2 2 2 2 4 3 3 3 3 5 5 7 7 6 7 6 9 8 9 9 9 9 9 9 10
11 11 10 10 9 9 8 8 7 7 6 6 6 6 5 5 5 3 3 3 3 3 3 4 4 3 4 4 5 7 7 5 9 6 10 13 12 11 11 11 11 11 11
12 11 11 10 10 9 9 8 8 7 7 6 6 6 6 6 6 5 4 4 4 4 4 5 5 4 4 4 5 6 6 5 6 7 6 6 10 14 15 15 14 13 13
12 11 11 10 10 9 9 9 9 8 8 7 7 7 7 4 2 4 5 4 5 5 5 5 5 5 4 4 5 6 6 7 6 6 7 7 7 8 9 14 17 15 14
11 11 11 11 11 9 8 7 7 8 8 8 8 8 7 8 8 8 8 7 7 8 7 7 6 6 6 6 6 7 8 8 8 5 7 8 8 9 8 9 5 9 12
12 11 11 11 11 9 11 11 9 8 8 8 8 8 8 7 8 9 10 12 12 12 11 10 10 9 8 7 7 10 8 9 10 9 9 11 9 10 9 8 7 10 12
11 11 11 11 10 10 13 12 11 11 10 9 9 9 9 8 8 7 8 9 9 10 11 12 11 11 10 8 8 9 10 11 12 10 9 11 10 10 10 9 8 12 14
12 11 11 11 11 10 14 13 12 10 10 11 10 10 10 10 6 6 9 9 10 9 10 12 12 11 10 9 8 9 10 11 11 10 7 9 10 11 10 10 9 11 15
11 11 11 11 12 11 13 15 14 10 10 9 9 10 10 11 6 9 10 10 10 9 9 8 10 12 13 13 13 12 11 11 11 11 8 8 10 11 11 10 9 8 9
Wind_Direction
168 157 152 161 176 156 167 177 159 135 145 149 153 101 62 80 96 117 120 142 161 172 177 180 181 183 190 196 194 189 185 183 183 186 191 187 182 180 180 181 179 178 177
163 168 171 178 178 186 160 182 148 168 189 136 173 144 225 165 145 180 140 149 161 169 179 182 183 188 195 200 202 200 199 197 194 197 202 201 196 193 192 193 188 187 185
165 179 173 186 174 165 168 199 177 188 191 183 175 177 190 222 172 182 191 168 163 166 174 185 188 191 196 197 203 205 204 206 203 206 212 215 211 205 202 201 200 198 196
175 190 187 176 169 188 188 182 211 199 178 205 181 203 166 175 193 190 194 187 193 162 167 176 186 192 198 198 201 199 197 202 211 218 220 223 225 218 213 210 207 205 203
179 196 189 148 189 187 191 212 155 224 189 218 192 178 206 182 180 201 193 186 179 197 180 156 171 183 197 201 203 199 197 202 211 217 223 225 229 228 224 220 217 212 209
180 191 180 176 201 186 185 185 156 202 233 236 248 123 160 149 184 158 209 178 180 195 193 167 177 182 182 193 202 205 203 204 209 214 221 226 228 229 229 229 226 222 219
173 193 188 166 208 188 189 182 196 180 200 202 216 180 155 154 128 140 137 190 151 147 142 155 181 174 168 172 185 206 211 212 212 213 221 225 227 226 227 232 231 229 227
181 187 188 189 183 169 175 182 207 228 180 197 252 219 183 159 150 113 137 149 137 146 141 130 109 118 273 145 129 151 194 221 220 218 219 223 229 228 228 232 233 234 236
179 180 176 190 183 200 170 189 199 218 205 185 257 283 268 189 142 130 108 97 94 99 122 116 117 107 113 99 122 114 88 69 229 227 222 222 224 228 232 236 235 235 238
172 174 176 175 194 193 163 198 180 211 225 206 177 258 329 358 281 157 158 133 117 97 71 79 103 106 102 104 98 89 86 69 53 25 229 224 226 231 234 236 238 237 238
172 176 172 172 179 184 164 174 158 228 215 236 202 188 181 204 262 258 160 155 152 133 124 116 84 88 91 88 105 87 82 74 63 51 31 319 261 247 248 246 246 248 245
171 173 170 169 177 165 161 168 176 179 232 288 273 229 223 229 237 244 210 198 175 137 125 85 148 122 110 97 76 78 75 65 52 38 11 343 308 284 270 264 257 254 252
171 169 169 168 165 154 155 157 165 151 163 165 218 230 253 280 287 272 264 225 204 167 168 198 169 198 212 61 99 87 120 88 38 1 330 305 291 287 280 275 271 266 261
169 161 167 167 161 161 159 156 171 158 150 167 171 117 232 206 257 260 271 260 232 208 194 192 191 213 319 301 65 276 160 120 33 320 302 292 284 282 281 279 276 274 271
163 164 167 166 164 163 158 173 153 159 158 180 166 172 215 143 231 256 268 278 280 263 205 165 218 165 265 302 359 289 296 116 207 282 288 293 289 285 282 278 276 274 273
167 168 172 170 168 167 170 184 167 156 166 165 169 130 230 194 167 216 236 260 282 290 292 124 206 277 334 298 168 285 284 196 215 228 252 273 279 279 277 278 279 275 272
176 177 177 175 174 175 177 186 190 166 184 173 181 179 198 245 228 214 214 234 250 271 272 260 224 196 261 287 296 290 277 272 243 195 216 247 261 264 266 271 274 275 273
184 183 181 180 181 180 181 189 194 184 190 189 192 193 200 193 206 250 239 240 247 285 271 280 273 245 234 260 273 281 281 280 289 188 200 231 244 251 257 262 266 267 267
187 185 185 186 187 184 186 193 197 195 199 201 198 201 205 204 213 218 235 241 235 228 254 264 265 276 266 265 277 269 272 272 280 248 207 218 228 240 249 254 256 258 260
188 186 188 191 191 191 190 191 195 199 203 206 205 209 212 211 215 218 223 235 251 258 249 259 266 261 259 257 265 276 281 268 277 292 289 264 231 226 237 243 246 248 251
189 186 189 192 195 196 197 192 196 199 203 208 209 214 218 223 258 256 264 245 241 251 255 256 262 266 270 284 283 292 295 295 282 276 284 284 271 259 246 231 232 237 241
190 186 192 196 199 203 165 175 213 207 206 213 215 219 217 209 217 229 256 270 278 266 273 279 275 279 283 284 290 292 294 293 294 296 292 287 285 282 276 272 239 210 228
188 190 194 199 204 193 158 178 207 230 221 218 220 223 233 214 206 227 219 225 240 245 254 270 279 284 287 287 292 287 287 292 296 302 296 288 286 282 280 275 222 225 235
190 192 196 200 205 193 172 184 193 223 233 226 226 227 234 238 225 235 243 239 242 233 227 233 253 266 271 281 276 275 282 277 270 263 258 274 284 285 286 284 247 227 234
191 194 197 201 206 197 179 184 193 218 225 229 230 228 230 234 212 208 245 254 258 259 239 232 244 259 275 280 277 278 276 277 281 284 275 275 285 288 287 283 273 231 228
194 198 199 202 207 208 183 185 197 224 225 225 221 226 227 237 214 197 236 251 258 263 273 257 235 243 250 249 233 241 262 273 281 286 289 285 286 289 289 285 286 281 255